Погода в Пионерском

Россия / Республика Крым     44°52′32″N   34°12′31″E
темп.,
°C
ветер,
м/с
пор.,
м/с
влажн.,
%
обл.,
%
осадки,
мм/ч
давл.,
гПа
погр.,
м
8 мая, сб
сб800:00+12ююв455689 0.0 101476
03:00+11ююв4562100 0.0 101273
06:00+12ююв4568100 0.0 101176
09:00+19ююв475197 0.0 1010340
12:00+24зюз473499 0.0 10091766
15:00+20зсз775192 0.0 1011869
18:00+15з4580100 0.2 1012640
21:00+11ссз5995100 1.4 1015687
9 мая, вс
вс900:00+9с4988100 2.9 1017844
03:00+7ссз4986100 3.1 1018549
06:00+5сз4888100 0.0 1021545
09:00+7с577382 0.1 10231079
12:00+12ссз684713 0.1 10241832
15:00+13ссз774035 0.1 10242293
18:00+12ссз564358 0.0 10252240
21:00+7сз115897 0.0 102811
10 мая, пн
пн1000:00+7ююз216631 0.0 102816
03:00+5ю11725 0.0 102810
06:00+5ююв117219 0.0 102910
09:00+10ссв36555 0.0 10281054
12:00+13ссв563947 0.0 10272198
15:00+14с45378 0.0 10262209
18:00+13ссв454115 0.0 10252052
21:00+7св116047 0.0 102610
11 мая, вт
вт1100:00+7ююз116663 0.0 102517
03:00+6юз227746 0.0 102432
06:00+5ююз22815 0.0 102333
09:00+11сз356070 0.0 1021834
12:00+13сз4446100 0.0 10201332
15:00+11сз3457100 0.0 1019642
18:00+11зсз1365100 0.0 1018405
21:00+10юз1165100 0.0 101727
12 мая, ср
ср1200:00+9ссз1188100 0.3 101676
03:00+8ссв1398100 2.2 1015212
06:00+8св259799 0.2 1014292
09:00+8св3388100 0.3 1014350
12:00+9в238697 0.1 1014302
15:00+12юв227399 0.3 1013652
18:00+12ююв3477100 0.1 1013458
21:00+8ююв33931 0.2 101442